Flag for Saint Pierre and Miquelon Weather past 2 weeks in Saint-Pierre, Saint Pierre and Miquelon

Now
63 °F

Low clouds.


Feels Like: 63 °F
Forecast: 63 / 65 °F
Wind: 12 mph from Southwest

Location: Saint-Pierre

Current Time: Aug 31, 2015 at 2:57:09 AM

Latest Report: Aug 31, 2015 at 1:00 AM


Visibility: 5 mi

Pressure: 29.94 "Hg

Humidity: 95%

Dew point: 61 °F

Location of Saint-PierreLocation

Historic Weather in Saint-Pierre — Graph

°F

Saint-Pierre temperature yesterday

Maximum temperature yesterday: 68 °F (at 4:00 PM)
Minimum temperature yesterday: 59 °F (at 4:00 AM)
Average temperature yesterday: 62 °F

Past Weeks' High & Low Weather Summary

 TemperatureHumidityPressure
High74 °F (Aug 17, 1:00 PM)100% (Aug 19, 2:00 AM)30.38 "Hg (Aug 19, 2:00 AM)
Low54 °F (Aug 26, 7:00 AM)68% (Aug 27, 2:00 PM)29.81 "Hg (Aug 28, 7:00 AM)
Average62 °F93%30.08 "Hg
* Reported Aug 16 2:00 AM — Aug 31 1:00 AM, Saint-Pierre, Weather by CustomWeather, © 2015

Note: Actual official high and low records may vary slightly from our data, if they occured in-between our weather recording intervals... More about our weather records

Advertising

Saint-Pierre weather history for previous 24 hours

 ConditionsComfort  
Time TempWeatherWind HumidityBarometerVisibility
1:00 AM
Mon, Aug 31
63 °FLow clouds.12 mph95%29.94 "Hg5 mi
12:00 AM64 °FLow clouds.16 mph96%29.93 "Hg7 mi
11:00 PM
Sun, Aug 30
63 °FOvercast.13 mph95%29.94 "Hg6 mi
10:00 PM63 °FOvercast.13 mph95%29.96 "Hg7 mi
9:00 PM63 °FLow clouds.8 mph95%29.95 "Hg7 mi
7:00 PM64 °FLow clouds.13 mph93%29.96 "Hg7 mi
6:00 PM64 °FLow clouds.15 mph91%29.96 "Hg7 mi
5:00 PM65 °FLow clouds.13 mph90%29.96 "Hg7 mi
4:00 PM68 °FLow clouds.12 mph84%29.97 "Hg5 mi
3:00 PM67 °FLow clouds.12 mph88%29.98 "Hg5 mi
2:00 PM64 °FFog.12 mph95%29.99 "Hg2 mi
12:00 PM63 °FFog.8 mph97%30.01 "Hg1 mi
11:00 AM63 °FFog.7 mph97%30.01 "Hg1 mi
10:00 AM62 °FFog.8 mph97%30.01 "Hg1 mi
9:00 AM62 °FLight snow. Dense fog.2 mph97%30.01 "Hg0 mi
8:00 AM61 °FLow clouds.1 mph96%30.00 "Hg4 mi
7:00 AM60 °FLow clouds.1 mph96%30.00 "Hg12 mi
6:00 AM60 °FPassing clouds.6 mph96%30.00 "Hg12 mi
5:00 AM59 °FOvercast.3 mph96%30.00 "Hg11 mi
4:00 AM59 °FCool.2 mph96%30.00 "Hg9 mi
3:00 AM60 °FOvercast.3 mph95%30.00 "Hg8 mi
2:00 AM60 °FOvercast.3 mph93%30.01 "Hg9 mi
Weather by CustomWeather, © 2015

See weather overviewHow to use our weather pages